Location: Trois-Rivi�res
(46.3500°N, 72.5500°W)
Time: 13:03:14
(UTC-04:00)

Daily predictions for brighter satellites

Satellite Brightness Start Highest point End
(mag) Time Altitude Azimuth Time Altitude Azimuth Time Altitude Azimuth
Cosmos 1607 4.3 18:51:58 10° SW 18:58:07 70° NW 19:04:17 10° NNE
Cosmos-2242 4.3 18:55:47 10° SE 18:59:03 21° E 19:02:21 10° NE
Cosmos 1441 Rocket 4.3 18:55:41 10° NNW 18:59:18 49° W 19:02:55 10° S
ATLAS CENTAUR R/B 3.2 18:55:32 10° NW 18:59:23 34° WSW 19:02:57 10° S
Meteor 1-28 Rocket 3.9 18:57:51 10° NNE 19:01:14 32° E 19:04:36 10° SSE
SL-19 R/B 4.4 18:57:31 10° SSE 19:03:09 82° ENE 19:09:13 10° NNW
Cosmos 2297 4.0 18:57:39 10° NNW 19:03:21 76° WSW 19:08:58 10° SSE
Cosmos 2233 Rocket 4.3 19:01:23 10° SSW 19:07:41 79° W 19:14:03 10° N
Cosmos 1805 4.3 19:04:28 10° SE 19:07:44 25° E 19:11:00 10° NNE
Cosmos 1953 3.2 19:05:20 10° SSE 19:08:41 26° E 19:12:03 10° NNE
ALOS 3.4 19:06:25 10° ESE 19:10:10 25° ENE 19:13:57 10° N
USA 215 4.0 19:05:44 10° ENE 19:11:27 31° SE 19:17:07 10° S
Meteor 1-22 Rocket 4.0 19:06:53 10° S 19:12:11 73° E 19:17:28 10° NNE
SKYMED 2 3.7 19:08:24 10° NNE 19:12:46 84° WNW 19:17:07 10° SSW
Cosmos 1943 Rocket 4.0 19:09:48 10° N 19:12:51 15° NE 19:15:54 10° ENE
Cosmos 2369 Rocket 3.3 19:08:29 10° N 19:13:10 26° NE 19:17:50 10° ESE
Cosmos 1707 4.4 19:11:26 10° NNW 19:15:04 39° W 19:18:40 10° SSW
Cosmos 1408 Rocket 3.6 19:11:17 10° N 19:15:35 55° ENE 19:19:50 10° SSE
Meteor 1-24 Rocket 4.0 19:10:45 10° NNW 19:16:26 76° W 19:21:51 10° S
HJ-1C 3.9 19:13:50 10° SE 19:16:59 38° ENE 19:20:09 10° N
Cosmos 1603 4.3 19:17:10 10° SSE 19:22:17 34° ESE 19:27:26 10° NE
NOAA 12 4.1 19:22:21 10° SSE 19:27:37 90° NE 19:32:57 10° NNW
ATLAS 3B R/B 4.2 19:20:39 10° WSW 19:27:40 39° NW 19:34:26 10° NNE
Aureole 2 Rocket 3.3 19:26:41 10° SSW 19:31:03 70° WNW 19:35:17 10° NNE
Cosmos 1470 4.1 19:28:27 10° SE 19:31:13 19° E 19:34:00 10° NE
SeaSat 1 4.4 19:35:13 11° SE 19:35:13 11° SE 19:35:29 10° SE
ATLAS CENTAUR R/B 3.8 19:28:42 10° SSW 19:34:02 68° SE 19:51:29 10° NE
Cosmos 2333 Rocket 4.0 19:32:11 10° WSW 19:37:24 34° NW 19:42:38 10° NNE
In-Cosmos 22 4.3 19:31:40 10° N 19:37:30 86° E 19:43:15 10° S
SJ-6B 3.5 19:34:45 10° S 19:38:41 60° W 19:42:45 10° NNW
Meteor 1-29 3.5 19:35:44 10° NNE 19:39:03 38° E 19:42:20 10° SSE
Resurs 1-3 3.6 19:36:09 10° SSE 19:40:28 61° ENE 19:44:50 10° N
TELKOM 3 3.1 19:38:19 10° WNW 19:41:17 82° SSW 19:42:21 28° ESE
Helios 1A 2.9 19:37:41 10° SSE 19:41:52 72° ENE 19:46:06 10° N
FREGAT/IRIS 3.3 19:39:04 10° S 19:42:07 58° W 19:45:11 10° NNW
Cosmos 1674 3.3 19:39:59 10° N 19:43:36 36° ENE 19:46:24 15° SE
CZ-4B DEB 3.3 19:41:22 16° SE 19:43:37 37° ENE 19:46:41 10° N
Resurs 01 Rocket 1.6 19:39:12 10° SSE 19:43:39 84° ENE 19:48:08 10° NNW
Cosmos 1743 Rocket 3.7 19:40:22 10° N 19:44:45 54° ENE 19:49:05 10° SSE
NOSS 3-2 (A) 3.6 19:41:53 10° SW 19:48:01 81° NW 19:54:49 10° NE
FengYun 1-2 T 4.1 19:43:56 10° SSE 19:49:25 75° ENE 19:54:55 10° NNW
Cosmos 1452 Rocket 3.9 19:44:39 10° NNW 19:49:53 66° WSW 19:55:04 10° S
Cosmos 1758 3.3 19:47:32 10° S 19:51:38 83° E 19:55:45 10° N
ATLAS 5 CENTAUR R/B 1.8 19:52:45 10° SW 19:57:35 89° SE 20:02:53 10° NE
Abrixas 3.8 19:55:25 10° SSW 19:57:41 24° SSE 19:57:41 24° SSE
Cosmos 2237 Rocket 4.2 19:53:20 10° WSW 19:58:12 28° NW 20:03:06 10° N
Nadezhda 4 Rocket 3.9 19:52:21 10° N 19:58:40 77° E 20:04:53 10° SSE
Cosmos 1346 3.0 19:57:05 10° NNW 20:00:05 80° W 20:02:38 13° S
Meteor 2-12 Rocket 4.4 19:59:40 10° S 20:05:50 88° E 20:12:02 10° N
Meteor 1-21 Rocket 4.4 20:00:49 10° NNW 20:06:23 74° W 20:11:53 10° S
Cosmos 1092 Rocket 3.9 20:00:26 10° N 20:06:38 65° E 20:12:44 10° SSE
GP-B 3.6 20:02:51 10° NNE 20:06:59 37° E 20:08:19 30° ESE
Cosmos 468 4.4 20:04:37 10° SSW 20:09:52 85° ESE 20:15:08 10° NNE
ASTEX 1 3.3 20:05:17 10° NNE 20:10:11 63° E 20:15:02 10° S
Cosmos 1420 Rocket 4.2 20:05:44 10° NNW 20:11:03 76° WSW 20:16:21 10° SSE
Helios 1B rocket 2.8 20:12:13 10° N 20:16:19 65° WNW 20:20:23 10° SSW
Cosmos 1328 4.1 20:13:28 10° N 20:17:17 44° ENE 20:17:29 43° E
SL-16 R/B 3.6 20:13:32 10° WSW 20:18:50 40° NW 20:24:12 10° NNE
CENTAUR R/B 2.8 20:13:51 10° S 20:19:33 43° ESE 20:25:55 10° NE
Cosmos 2026 Rocket 4.2 20:14:03 10° N 20:19:55 47° ENE 20:22:36 30° SE
Cosmos 1544 3.5 20:17:10 10° SSW 20:20:52 65° W 20:24:37 10° N
Cosmos 1939 Rocket 4.2 20:21:59 25° NE 20:21:59 25° NE 20:24:31 10° N
Cosmos 1634 Rocket 4.0 20:18:48 10° S 20:24:53 58° E 20:30:58 10° NNE
SL-14 R/B 4.4 20:21:42 10° N 20:24:31 30° NE 20:24:31 30° NE
CZ-2D R/B 3.4 20:24:44 24° S 20:27:02 75° WSW 20:30:57 10° NNW
NOSS 3-2 (C) 4.0 20:21:00 10° SW 20:27:08 61° NW 20:33:54 10° NE
H-2A R/B 3.9 20:28:54 19° NE 20:28:54 19° NE 20:31:06 10° NNE
ERBS 3.6 20:25:28 10° NW 20:28:32 31° NNE 20:28:32 31° NNE
Cosmos 1048 Rocket 3.9 20:27:26 10° SSW 20:32:44 88° ESE 20:38:01 10° NNE
SPOT 5 4.4 20:34:31 18° NE 20:34:31 18° NE 20:36:20 10° NNE
Cosmos 1269 Rocket 4.1 20:28:00 10° SSW 20:33:17 80° WNW 20:38:37 10° NNE
FENGYUN 3A 4.1 20:30:04 10° S 20:35:23 62° W 20:40:46 10° NNW
Cosmos-2242 4.5 20:32:16 10° SW 20:36:23 39° WNW 20:40:31 10° N
Envisat 3.2 20:39:20 46° ENE 20:39:34 47° ENE 20:44:26 10° N
H-2A R/B 3.5 20:39:09 24° SSW 20:41:14 52° W 20:45:02 10° NNW
Cosmos 2221 4.4 20:44:38 18° NNE 20:44:38 18° NNE 20:45:56 10° NNE
Cosmos 2195 Rocket 4.4 20:35:34 10° N 20:41:56 78° E 20:45:27 28° SSE
Cosmos 2151 2.8 20:38:07 10° N 20:42:21 84° ENE 20:42:41 75° SE
YAOGAN 11 4.3 20:43:25 51° NE 20:43:25 51° NE 20:47:07 10° N
Gbstr 26 Del rocket 3.9 20:39:31 10° SSW 20:42:57 39° S 20:42:57 39° S
CZ-4C R/B 4.4 20:40:12 10° WNW 20:44:50 24° NNW 20:49:58 10° NNE
Cosmos 2058 3.4 20:40:50 10° N 20:44:01 46° NNE 20:44:01 46° NNE
ISS -0.9 20:43:21 10° SW 20:44:07 16° SW 20:44:07 16° SW
ALOS 3.4 20:42:59 10° S 20:47:24 41° W 20:51:51 10° NNW
H-2A R/B 4.3 20:51:24 11° NE 20:51:24 11° NE 20:52:02 10° NNE
BREEZE-M DEB (TANK) 3.0 20:39:59 10° W 20:51:13 79° SSW 20:52:03 61° SE
Meteor 2-20 4.5 20:48:27 10° N 20:54:31 55° ENE 20:54:59 54° E
USA 215 3.2 20:49:37 17° NE 20:54:55 85° NW 21:01:28 10° WSW
Cosmos 1842 Rocket 4.4 20:51:52 10° SSW 20:56:03 48° WNW 21:00:19 10° N
Cosmos 2369 Rocket 2.5 20:52:02 10° NNW 20:57:38 63° WSW 20:59:45 37° S
Cosmos 1943 Rocket 2.1 20:52:13 10° NNW 20:57:50 63° ENE 20:58:07 62° ENE
Cosmos 158 Rocket 3.7 20:52:58 10° SSW 20:57:51 90° ESE 21:02:46 10° NNE
Cosmos 1943 3.0 20:55:13 10° SSW 21:00:52 88° ESE 21:06:32 10° NNE
Cosmos 2263 4.3 20:58:59 10° NNW 21:04:47 76° WSW 21:05:59 56° S
Cosmos 1470 4.4 21:03:33 10° SW 21:07:06 34° WNW 21:10:40 10° N
SeaSat 1 4.0 21:06:16 10° NNE 21:15:14 16° SSW 21:16:11 10° SSW
Aureole 3 4.3 21:06:55 10° N 21:12:51 64° NE 21:12:51 64° NE
SL-8 R/B 4.4 21:08:51 10° WSW 21:12:17 47° SW 21:12:17 47° SW
ERS-1 Rocket 3.0 21:15:22 76° W 21:15:22 76° W 21:20:24 10° NNW
Cosmos 1110 Rocket 4.4 21:16:48 10° NNW 21:22:01 59° WSW 21:22:20 58° WSW
Meteor 2-1 Rocket 4.2 21:24:04 85° N 21:24:04 85° N 21:29:51 10° N
Cosmos 2180 Rocket 4.4 21:28:05 75° NNE 21:28:05 75° NNE 21:33:43 10° N
Terra 4.3 21:35:55 12° NNE 21:35:55 12° NNE 21:36:27 10° NNE
ATLAS 5 CENTAUR R/B 4.1 21:38:59 10° W 21:43:03 23° NNW 21:47:24 10° NNE
Cosmos 2279 Rocket 4.4 21:46:27 51° WSW 21:47:36 59° WNW 21:53:46 10° N
UNK 4.3 21:39:58 10° WNW 21:54:40 76° W 21:54:40 76° W
Cosmos 2266 Rocket 4.5 21:56:31 10° N 22:01:26 56° NNW 22:01:26 56° NNW
ARGOS 4.5 22:05:49 35° NNW 22:05:49 35° NNW 22:08:51 10° NNW
H-2A R/B 4.4 22:06:03 23° NW 22:06:03 23° NW 22:07:51 10° NNW
CENTAUR R/B 3.4 22:04:06 10° WSW 22:10:10 48° NW 22:17:03 10° NE
H-2A R/B 4.2 22:32:03 20° N 22:32:03 20° N 22:33:35 10° NNW
USA 215 4.2 22:37:00 41° N 22:37:32 42° NNW 22:43:35 10° W
Cosmos 1943 Rocket 4.3 22:36:55 10° NW 22:39:39 19° W 22:39:39 19° W
